Torna al catalogo

ATLAS 5 CENTAUR DEB

AttivoHEO
NORAD 43960·DEBRIS·🇺🇸 United States

Lanciato Sep 17, 2014 da Cape Canaveral Space Force Station

Loading…

Prossimi Passaggi (prossime 24 ore)

TLE

AggiornatoSource: Space-Track

Epoca: Sep 10, 2026, 11:23 UTC

1 43960U 14055P   26253.47454373 -.00000105  00000-0  00000-0 0  9999
2 43960  20.2497 129.7780 5012638 187.8945 159.5817  1.81619170 53197

Traccia ATLAS 5 CENTAUR DEB in tempo reale con AllMySat

Download on the App Store